Weather History for Wiscasset, ME

Change the Weather History Date:

Friday, November 29, 2013

  Actual Average Record
Temperature  
Mean Temperature 21 °F -  
Max Temperature 27 °F 40 °F 57 °F (2003)
Min Temperature 14 °F 24 °F 10 °F (1996)
Degree Days  
Heating Degree Days 44    
Moisture  
Dew Point 7 °F    
Average Humidity 58    
Maximum Humidity 80    
Minimum Humidity 36    
Precipitation  
Precipitation 0.00 in - - ()
Sea Level Pressure  
Sea Level Pressure 30.57 in    
Wind  
Wind Speed 1 mph (North)    
Max Wind Speed 7 mph    
Max Gust Speed -    
Visibility 10 miles    
Events      
Averages and records for this station are not official NWS values.
T = Trace of Precipitation, MM = Missing Value Source: NWS Daily Summary

Daily Weather History Graph

Daily Weather History Graph

Search for Another Location

Airport:

Trip Planner

Search our weather history database for the weather conditions in past years. The results will help you decide how hot, cold, wet, or windy it might be!

Date:

Astronomy

Nov. 29, 2013 Rise Set
Actual Time 6:51 AM EST 4:02 PM EST
Civil Twilight 6:19 AM EST 4:35 PM EST
Nautical Twilight 5:43 AM EST 5:10 PM EST
Astronomical Twilight 5:08 AM EST 5:45 PM EST
Moon 2:46 AM EST (11/29) 1:51 PM EST (11/29)
Length of Visible Light 10h 16m
Length of Day
9h 11m
Waning Crescent, 14% of the Moon is Illuminated
Nov 29
Waning Crescent
Dec 2
New
Dec 9
First Quarter
Dec 17
Full
Dec 25
Last Quarter

Hourly Weather History & Observations

Time (EST) Temp. Windchill Dew Point Humidity Pressure Visibility Wind Dir Wind Speed Gust Speed Precip Events Conditions
12:53 AM 19.9 °F - 7.0 °F 57% 30.41 in 10.0 mi Calm Calm - N/A   Clear
1:53 AM 19.0 °F - 8.1 °F 62% 30.42 in 10.0 mi Calm Calm - N/A   Clear
2:53 AM 18.0 °F - 8.1 °F 65% 30.43 in 10.0 mi Calm Calm - N/A   Clear
3:53 AM 17.1 °F - 10.0 °F 74% 30.45 in 10.0 mi Calm Calm - N/A   Clear
4:53 AM 17.1 °F - 10.9 °F 77% 30.46 in 10.0 mi Calm Calm - N/A   Clear
5:53 AM 16.0 °F - 10.0 °F 77% 30.48 in 10.0 mi Calm Calm - N/A   Clear
6:53 AM 15.1 °F - 10.0 °F 80% 30.50 in 10.0 mi Calm Calm - N/A   Clear
7:53 AM 19.0 °F - 12.9 °F 77% 30.53 in 10.0 mi Calm Calm - N/A   Clear
8:53 AM 21.9 °F 15.7 °F 9.0 °F 58% 30.54 in 10.0 mi Variable 4.6 mph - N/A   Clear
9:53 AM 24.1 °F 17.0 °F 7.0 °F 48% 30.55 in 10.0 mi Variable 5.8 mph - N/A   Clear
10:53 AM 25.0 °F 19.3 °F 6.1 °F 45% 30.54 in 10.0 mi Variable 4.6 mph - N/A   Clear
11:53 AM 26.1 °F 18.4 °F 3.9 °F 39% 30.54 in 10.0 mi Variable 6.9 mph - N/A   Clear
12:53 PM 27.0 °F 20.5 °F 3.0 °F 36% 30.54 in 10.0 mi Variable 5.8 mph - N/A   Clear
1:53 PM 26.1 °F 19.4 °F 3.0 °F 37% 30.55 in 10.0 mi Variable 5.8 mph - N/A   Clear
2:53 PM 26.1 °F 19.4 °F 3.0 °F 37% 30.57 in 10.0 mi Variable 5.8 mph - N/A   Clear
3:53 PM 24.1 °F - 3.0 °F 40% 30.60 in 10.0 mi Calm Calm - N/A   Clear
4:53 PM 23.0 °F - 5.0 °F 46% 30.62 in 10.0 mi Calm Calm - N/A   Clear
5:53 PM 21.9 °F 17.2 °F 7.0 °F 53% 30.66 in 10.0 mi Variable 3.5 mph - N/A   Clear
6:53 PM 21.0 °F - 8.1 °F 57% 30.68 in 10.0 mi Calm Calm - N/A   Clear
7:53 PM 19.9 °F - 8.1 °F 60% 30.70 in 10.0 mi Calm Calm - N/A   Clear
8:53 PM 19.0 °F - 8.1 °F 62% 30.71 in 10.0 mi Calm Calm - N/A   Clear
9:53 PM 18.0 °F - 8.1 °F 65% 30.73 in 10.0 mi Calm Calm - N/A   Clear
10:53 PM 17.1 °F - 8.1 °F 68% 30.74 in 10.0 mi Calm Calm - N/A   Clear
11:53 PM 14.0 °F - 8.1 °F 77% 30.75 in 10.0 mi Calm Calm - N/A   Clear